This is the latest recevied weather packets stored in our database for station/object KD8DLP-13. If no packets are shown the sender has not sent any weather packets the latest 10 day(s).
| Time | Temp. | Humidity | Pressure | Rain* | Wind** | Luminosity | Snow |
|---|---|---|---|---|---|---|---|
| 1777675550 | 7.78° C | 51% | 1017.5 hPa | 0 mm | - | 121 W/m² | - |
| 1777675247 | 7.78° C | 50% | 1017.6 hPa | 0 mm | - | 125 W/m² | - |
| 1777674943 | 8.33° C | 48% | 1017.3 hPa | 0 mm | - | 136 W/m² | - |
| 1777674640 | 8.89° C | 46% | 1017.3 hPa | 0 mm | - | 140 W/m² | - |
| 1777674339 | 9.44° C | 46% | 1017.5 hPa | 0 mm | - | 146 W/m² | - |
| 1777674034 | 9.44° C | 45% | 1017.4 hPa | 0 mm | - | 186 W/m² | - |
| 1777673729 | 10° C | 44% | 1017.4 hPa | 0 mm | - | 341 W/m² | - |
| 1777673427 | 10° C | 43% | 1017.2 hPa | 0 mm | - | 363 W/m² | - |
| 1777673125 | 10° C | 45% | 1017.3 hPa | 0 mm | - | 392 W/m² | - |
| 1777672821 | 9.44° C | 46% | 1017.3 hPa | 0 mm | - | 248 W/m² | - |
| 1777672517 | 8.33° C | 45% | 1017.2 hPa | 0 mm | - | 218 W/m² | - |
| 1777672213 | 8.33° C | 45% | 1017.1 hPa | 0 mm | - | 139 W/m² | - |
| 1777671909 | 8.33° C | 46% | 1017.3 hPa | 0 mm | - | 132 W/m² | - |
| 1777671604 | 8.33° C | 48% | 1017.1 hPa | 0 mm | - | 147 W/m² | - |
| 1777671301 | 7.78° C | 53% | 1017.1 hPa | 0 mm | - | 108 W/m² | - |
| 1777670996 | 7.78° C | 52% | 1017.3 hPa | 0 mm | - | 105 W/m² | - |
| 1777670693 | 7.78° C | 55% | 1017.2 hPa | 0 mm | - | 105 W/m² | - |
| 1777670390 | 7.78° C | 55% | 1017.1 hPa | 0 mm | - | 93 W/m² | - |
| 1777670088 | 7.22° C | 55% | 1017 hPa | 0 mm | - | 77 W/m² | - |
| 1777669785 | 7.78° C | 54% | 1016.9 hPa | 0 mm | - | 60 W/m² | - |
| 1777669481 | 7.22° C | 55% | 1017.1 hPa | 0 mm | - | 55 W/m² | - |
| 1777669178 | 7.78° C | 55% | 1017 hPa | 0 mm | - | 53 W/m² | - |
| 1777668875 | 7.78° C | 54% | 1017 hPa | 0 mm | - | 57 W/m² | - |
| 1777668572 | 7.78° C | 53% | 1016.9 hPa | 0 mm | - | 79 W/m² | - |
| 1777668268 | 7.78° C | 55% | 1016.9 hPa | 0 mm | - | 82 W/m² | - |
* Rain latest hour (hover to see other rain measurements)
** Current wind speed in m/s (hover to see current wind gust speed)